contact:dominique.lefevre@mio.osupytheas.fr, maurice.libes@osupytheas.fr, didier.mallarino@osupytheas.fr
Project:EMSO http://www.emso-fr.org/EMSO-France
Depth: 2436.0 m
Title:EMSO Ligure Ouest : Data MII capteur MICROCAT
DateTime_Computer,Latitude,Longitude,Temperature,Conductivity,Pressure,DateTime_Instrument
DateTime_Computer,Latitude,Longitude,degC,S m-1,dbar,DateTime_Instrument
2023-10-22T00:01:01Z,42.805,6.029,13.3125,4.60135,2470.81,2023-10-22T02:03:26Z
2023-10-22T00:04:04Z,42.805,6.029,13.3116,4.60139,2470.787,2023-10-22T02:06:29Z
2023-10-22T00:07:07Z,42.805,6.029,13.3112,4.60135,2470.824,2023-10-22T02:09:32Z
2023-10-22T00:10:10Z,42.805,6.029,13.3104,4.60170,2470.8,2023-10-22T02:12:35Z
2023-10-22T00:13:13Z,42.805,6.029,13.3091,4.60151,2470.81,2023-10-22T02:15:38Z
2023-10-22T00:16:16Z,42.805,6.029,13.3111,4.60191,2470.824,2023-10-22T02:18:41Z
2023-10-22T00:19:19Z,42.805,6.029,13.3041,4.60173,2470.787,2023-10-22T02:21:45Z
2023-10-22T00:22:22Z,42.805,6.029,13.3036,4.60190,2470.833,2023-10-22T02:24:48Z
2023-10-22T00:25:26Z,42.805,6.029,13.3037,4.60155,2470.824,2023-10-22T02:27:51Z
2023-10-22T00:28:29Z,42.805,6.029,13.3035,4.60154,2470.81,2023-10-22T02:30:54Z
2023-10-22T00:31:32Z,42.805,6.029,13.3036,4.60139,2470.81,2023-10-22T02:33:57Z
2023-10-22T00:34:35Z,42.805,6.029,13.3035,4.60140,2470.8,2023-10-22T02:37:00Z
2023-10-22T00:37:38Z,42.805,6.029,13.3036,4.60140,2470.81,2023-10-22T02:40:03Z
2023-10-22T00:40:41Z,42.805,6.029,13.3032,4.60137,2470.81,2023-10-22T02:43:06Z
2023-10-22T00:43:44Z,42.805,6.029,13.3033,4.60146,2470.81,2023-10-22T02:46:09Z
2023-10-22T00:46:47Z,42.805,6.029,13.3032,4.60142,2470.8,2023-10-22T02:49:12Z
2023-10-22T00:49:50Z,42.805,6.029,13.3032,4.60147,2470.787,2023-10-22T02:52:15Z
2023-10-22T00:52:53Z,42.805,6.029,13.3037,4.60173,2470.824,2023-10-22T02:55:18Z
2023-10-22T00:55:56Z,42.805,6.029,13.3032,4.60147,2470.81,2023-10-22T02:58:22Z
2023-10-22T00:58:59Z,42.805,6.029,13.3035,4.60155,2470.787,2023-10-22T03:01:25Z
2023-10-22T01:02:03Z,42.805,6.029,13.3037,4.60157,2470.787,2023-10-22T03:04:28Z
2023-10-22T01:05:06Z,42.805,6.029,13.3034,4.60214,2470.787,2023-10-22T03:07:31Z
2023-10-22T01:08:09Z,42.805,6.029,13.3036,4.60142,2470.787,2023-10-22T03:10:34Z
2023-10-22T01:11:12Z,42.805,6.029,13.3033,4.60169,2470.824,2023-10-22T03:13:37Z
2023-10-22T01:14:15Z,42.805,6.029,13.3036,4.60195,2470.763,2023-10-22T03:16:40Z
2023-10-22T01:17:18Z,42.805,6.029,13.3036,4.60178,2470.787,2023-10-22T03:19:43Z
2023-10-22T01:20:21Z,42.805,6.029,13.3034,4.60199,2470.8,2023-10-22T03:22:46Z
2023-10-22T01:23:24Z,42.805,6.029,13.3034,4.60172,2470.74,2023-10-22T03:25:49Z
2023-10-22T01:26:27Z,42.805,6.029,13.3034,4.60236,2470.74,2023-10-22T03:28:52Z
2023-10-22T01:29:30Z,42.805,6.029,13.3036,4.60238,2470.763,2023-10-22T03:31:55Z
2023-10-22T01:32:33Z,42.805,6.029,13.3033,4.60221,2470.787,2023-10-22T03:34:59Z
2023-10-22T01:35:36Z,42.805,6.029,13.3039,4.60212,2470.8,2023-10-22T03:38:02Z
2023-10-22T01:38:40Z,42.805,6.029,13.3042,4.60177,2470.787,2023-10-22T03:41:05Z
2023-10-22T01:41:43Z,42.805,6.029,13.3076,4.60196,2470.787,2023-10-22T03:44:08Z
2023-10-22T01:44:46Z,42.805,6.029,13.3084,4.60185,2470.763,2023-10-22T03:47:11Z
2023-10-22T01:47:49Z,42.805,6.029,13.3039,4.60237,2470.777,2023-10-22T03:50:14Z
2023-10-22T01:50:52Z,42.805,6.029,13.3034,4.60234,2470.763,2023-10-22T03:53:17Z
2023-10-22T01:53:55Z,42.805,6.029,13.3043,4.60215,2470.763,2023-10-22T03:56:20Z
2023-10-22T01:56:58Z,42.805,6.029,13.3039,4.60235,2470.777,2023-10-22T03:59:23Z
2023-10-22T02:00:01Z,42.805,6.029,13.3038,4.60195,2470.777,2023-10-22T04:02:26Z
2023-10-22T02:03:04Z,42.805,6.029,13.3037,4.60182,2470.763,2023-10-22T04:05:29Z
2023-10-22T02:06:07Z,42.805,6.029,13.3036,4.60186,2470.8,2023-10-22T04:08:32Z
2023-10-22T02:09:10Z,42.805,6.029,13.3037,4.60195,2470.763,2023-10-22T04:11:36Z
2023-10-22T02:12:13Z,42.805,6.029,13.3039,4.60202,2470.777,2023-10-22T04:14:39Z
2023-10-22T02:15:17Z,42.805,6.029,13.3035,4.60210,2470.75,2023-10-22T04:17:42Z
2023-10-22T02:18:20Z,42.805,6.029,13.3037,4.60256,2470.787,2023-10-22T04:20:45Z
2023-10-22T02:21:23Z,42.805,6.029,13.3037,4.60202,2470.763,2023-10-22T04:23:48Z
2023-10-22T02:24:26Z,42.805,6.029,13.3041,4.60256,2470.787,2023-10-22T04:26:51Z
2023-10-22T02:27:29Z,42.805,6.029,13.3041,4.60167,2470.763,2023-10-22T04:29:54Z
2023-10-22T02:30:32Z,42.805,6.029,13.3037,4.60148,2470.787,2023-10-22T04:32:57Z
2023-10-22T02:33:35Z,42.805,6.029,13.3036,4.60157,2470.787,2023-10-22T04:36:00Z
2023-10-22T02:36:38Z,42.805,6.029,13.3037,4.60165,2470.8,2023-10-22T04:39:03Z
2023-10-22T02:39:41Z,42.805,6.029,13.3034,4.60162,2470.777,2023-10-22T04:42:06Z
2023-10-22T02:42:44Z,42.805,6.029,13.3037,4.60170,2470.777,2023-10-22T04:45:09Z
2023-10-22T02:45:47Z,42.805,6.029,13.3036,4.60153,2470.787,2023-10-22T04:48:13Z
2023-10-22T02:48:51Z,42.805,6.029,13.3039,4.60178,2470.8,2023-10-22T04:51:16Z
2023-10-22T02:51:54Z,42.805,6.029,13.3036,4.60199,2470.763,2023-10-22T04:54:19Z
2023-10-22T02:54:57Z,42.805,6.029,13.3034,4.60184,2470.787,2023-10-22T04:57:22Z
2023-10-22T02:58:00Z,42.805,6.029,13.3033,4.60207,2470.763,2023-10-22T05:00:25Z
2023-10-22T03:01:03Z,42.805,6.029,13.3036,4.60210,2470.777,2023-10-22T05:03:28Z
2023-10-22T03:04:06Z,42.805,6.029,13.3032,4.60231,2470.787,2023-10-22T05:06:31Z
2023-10-22T03:07:09Z,42.805,6.029,13.3041,4.60202,2470.75,2023-10-22T05:09:34Z
2023-10-22T03:10:12Z,42.805,6.029,13.3036,4.60146,2470.787,2023-10-22T05:12:37Z
2023-10-22T03:13:15Z,42.805,6.029,13.3036,4.60162,2470.777,2023-10-22T05:15:40Z
2023-10-22T03:16:18Z,42.805,6.029,13.3039,4.60140,2470.777,2023-10-22T05:18:43Z
2023-10-22T03:19:21Z,42.805,6.029,13.3034,4.60154,2470.777,2023-10-22T05:21:46Z
2023-10-22T03:22:24Z,42.805,6.029,13.3035,4.60137,2470.81,2023-10-22T05:24:50Z
2023-10-22T03:25:27Z,42.805,6.029,13.3036,4.60142,2470.787,2023-10-22T05:27:53Z
2023-10-22T03:28:31Z,42.805,6.029,13.3038,4.60132,2470.787,2023-10-22T05:30:56Z
2023-10-22T03:31:34Z,42.805,6.029,13.3034,4.60146,2470.8,2023-10-22T05:33:59Z
2023-10-22T03:34:37Z,42.805,6.029,13.3035,4.60151,2470.777,2023-10-22T05:37:02Z
2023-10-22T03:37:40Z,42.805,6.029,13.3030,4.60157,2470.787,2023-10-22T05:40:05Z
2023-10-22T03:40:43Z,42.805,6.029,13.3038,4.60152,2470.763,2023-10-22T05:43:08Z
2023-10-22T03:43:46Z,42.805,6.029,13.3032,4.60155,2470.787,2023-10-22T05:46:11Z
2023-10-22T03:46:49Z,42.805,6.029,13.3033,4.60158,2470.777,2023-10-22T05:49:14Z
2023-10-22T03:49:52Z,42.805,6.029,13.3035,4.60140,2470.787,2023-10-22T05:52:17Z
2023-10-22T03:52:55Z,42.805,6.029,13.3034,4.60156,2470.74,2023-10-22T05:55:20Z
2023-10-22T03:55:58Z,42.805,6.029,13.3034,4.60147,2470.763,2023-10-22T05:58:23Z
2023-10-22T03:59:01Z,42.805,6.029,13.3036,4.60140,2470.8,2023-10-22T06:01:27Z
2023-10-22T04:02:04Z,42.805,6.029,13.3038,4.60139,2470.777,2023-10-22T06:04:30Z
2023-10-22T04:05:08Z,42.805,6.029,13.3036,4.60147,2470.787,2023-10-22T06:07:33Z
2023-10-22T04:08:11Z,42.805,6.029,13.3039,4.60143,2470.81,2023-10-22T06:10:36Z
2023-10-22T04:11:14Z,42.805,6.029,13.3037,4.60129,2470.754,2023-10-22T06:13:39Z
2023-10-22T04:14:17Z,42.805,6.029,13.3036,4.60131,2470.8,2023-10-22T06:16:42Z
2023-10-22T04:17:20Z,42.805,6.029,13.3036,4.60133,2470.763,2023-10-22T06:19:45Z
2023-10-22T04:20:23Z,42.805,6.029,13.3040,4.60143,2470.763,2023-10-22T06:22:48Z
2023-10-22T04:23:26Z,42.805,6.029,13.3039,4.60142,2470.824,2023-10-22T06:25:51Z
2023-10-22T04:26:29Z,42.805,6.029,13.3037,4.60142,2470.787,2023-10-22T06:28:54Z
2023-10-22T04:29:32Z,42.805,6.029,13.3040,4.60128,2470.763,2023-10-22T06:31:57Z
2023-10-22T04:32:35Z,42.805,6.029,13.3036,4.60123,2470.787,2023-10-22T06:35:00Z
2023-10-22T04:35:38Z,42.805,6.029,13.3041,4.60118,2470.763,2023-10-22T06:38:03Z
2023-10-22T04:38:41Z,42.805,6.029,13.3040,4.60111,2470.81,2023-10-22T06:41:06Z
2023-10-22T04:41:44Z,42.805,6.029,13.3037,4.60107,2470.777,2023-10-22T06:44:09Z
2023-10-22T04:44:47Z,42.805,6.029,13.3041,4.60107,2470.777,2023-10-22T06:47:12Z
2023-10-22T04:47:50Z,42.805,6.029,13.3042,4.60112,2470.8,2023-10-22T06:50:15Z
2023-10-22T04:50:53Z,42.805,6.029,13.3042,4.60114,2470.777,2023-10-22T06:53:19Z
2023-10-22T04:53:56Z,42.805,6.029,13.3043,4.60112,2470.8,2023-10-22T06:56:22Z
2023-10-22T04:57:00Z,42.805,6.029,13.3043,4.60110,2470.763,2023-10-22T06:59:25Z
2023-10-22T05:00:03Z,42.805,6.029,13.3041,4.60110,2470.787,2023-10-22T07:02:28Z
2023-10-22T05:03:06Z,42.805,6.029,13.3043,4.60110,2470.787,2023-10-22T07:05:31Z
2023-10-22T05:06:09Z,42.805,6.029,13.3050,4.60110,2470.8,2023-10-22T07:08:34Z
2023-10-22T05:09:12Z,42.805,6.029,13.3037,4.60117,2470.8,2023-10-22T07:11:37Z
2023-10-22T05:12:15Z,42.805,6.029,13.3037,4.60121,2470.763,2023-10-22T07:14:40Z
2023-10-22T05:15:18Z,42.805,6.029,13.3040,4.60116,2470.81,2023-10-22T07:17:43Z
2023-10-22T05:18:21Z,42.805,6.029,13.3036,4.60111,2470.777,2023-10-22T07:20:46Z
2023-10-22T05:21:24Z,42.805,6.029,13.3037,4.60112,2470.763,2023-10-22T07:23:49Z
2023-10-22T05:24:27Z,42.805,6.029,13.3040,4.60122,2470.763,2023-10-22T07:26:52Z
2023-10-22T05:27:30Z,42.805,6.029,13.3038,4.60121,2470.8,2023-10-22T07:29:56Z
2023-10-22T05:30:33Z,42.805,6.029,13.3041,4.60112,2470.777,2023-10-22T07:32:59Z
2023-10-22T05:33:37Z,42.805,6.029,13.3043,4.60114,2470.763,2023-10-22T07:36:02Z
2023-10-22T05:36:40Z,42.805,6.029,13.3036,4.60121,2470.787,2023-10-22T07:39:05Z
2023-10-22T05:39:43Z,42.805,6.029,13.3039,4.60109,2470.8,2023-10-22T07:42:08Z
2023-10-22T05:42:46Z,42.805,6.029,13.3040,4.60108,2470.754,2023-10-22T07:45:11Z
2023-10-22T05:45:49Z,42.805,6.029,13.3040,4.60108,2470.763,2023-10-22T07:48:14Z
2023-10-22T05:48:52Z,42.805,6.029,13.3044,4.60108,2470.74,2023-10-22T07:51:17Z
2023-10-22T05:51:55Z,42.805,6.029,13.3042,4.60110,2470.74,2023-10-22T07:54:20Z
2023-10-22T05:54:58Z,42.805,6.029,13.3044,4.60110,2470.787,2023-10-22T07:57:23Z
2023-10-22T05:58:01Z,42.805,6.029,13.3041,4.60117,2470.763,2023-10-22T08:00:26Z
2023-10-22T06:01:04Z,42.805,6.029,13.3036,4.60115,2470.763,2023-10-22T08:03:29Z
2023-10-22T06:04:07Z,42.805,6.029,13.3037,4.60114,2470.777,2023-10-22T08:06:33Z
2023-10-22T06:07:10Z,42.805,6.029,13.3037,4.60119,2470.74,2023-10-22T08:09:36Z
2023-10-22T06:10:14Z,42.805,6.029,13.3037,4.60108,2470.763,2023-10-22T08:12:39Z
2023-10-22T06:13:17Z,42.805,6.029,13.3039,4.60108,2470.74,2023-10-22T08:15:42Z
2023-10-22T06:16:20Z,42.805,6.029,13.3036,4.60111,2470.763,2023-10-22T08:18:45Z
2023-10-22T06:19:23Z,42.805,6.029,13.3039,4.60106,2470.777,2023-10-22T08:21:48Z
2023-10-22T06:22:26Z,42.805,6.029,13.3039,4.60108,2470.74,2023-10-22T08:24:51Z
2023-10-22T06:25:29Z,42.805,6.029,13.3037,4.60107,2470.777,2023-10-22T08:27:54Z
2023-10-22T06:28:32Z,42.805,6.029,13.3039,4.60110,2470.74,2023-10-22T08:30:57Z
2023-10-22T06:31:34Z,42.805,6.029,13.3034,4.60109,2470.74,2023-10-22T08:33:59Z
2023-10-22T06:34:37Z,42.805,6.029,13.3034,4.60108,2470.763,2023-10-22T08:37:02Z
2023-10-22T06:37:40Z,42.805,6.029,13.3041,4.60110,2470.773,2023-10-22T08:40:05Z
2023-10-22T06:40:43Z,42.805,6.029,13.3037,4.60108,2470.763,2023-10-22T08:43:08Z
2023-10-22T06:43:46Z,42.805,6.029,13.3040,4.60107,2470.763,2023-10-22T08:46:11Z
2023-10-22T06:46:49Z,42.805,6.029,13.3039,4.60107,2470.74,2023-10-22T08:49:14Z
2023-10-22T06:49:52Z,42.805,6.029,13.3036,4.60106,2470.787,2023-10-22T08:52:17Z
2023-10-22T06:52:55Z,42.805,6.029,13.3034,4.60107,2470.777,2023-10-22T08:55:21Z
2023-10-22T06:55:58Z,42.805,6.029,13.3036,4.60107,2470.763,2023-10-22T08:58:24Z
2023-10-22T06:59:02Z,42.805,6.029,13.3034,4.60111,2470.74,2023-10-22T09:01:27Z
2023-10-22T07:02:05Z,42.805,6.029,13.3034,4.60104,2470.763,2023-10-22T09:04:30Z
2023-10-22T07:05:08Z,42.805,6.029,13.3038,4.60108,2470.777,2023-10-22T09:07:33Z
2023-10-22T07:08:11Z,42.805,6.029,13.3036,4.60106,2470.763,2023-10-22T09:10:36Z
2023-10-22T07:11:14Z,42.805,6.029,13.3036,4.60105,2470.787,2023-10-22T09:13:39Z
2023-10-22T07:14:17Z,42.805,6.029,13.3037,4.60107,2470.787,2023-10-22T09:16:42Z
2023-10-22T07:17:20Z,42.805,6.029,13.3038,4.60106,2470.763,2023-10-22T09:19:45Z
2023-10-22T07:20:23Z,42.805,6.029,13.3033,4.60107,2470.763,2023-10-22T09:22:48Z
2023-10-22T07:23:26Z,42.805,6.029,13.3038,4.60107,2470.8,2023-10-22T09:25:51Z
2023-10-22T07:26:29Z,42.805,6.029,13.3034,4.60108,2470.777,2023-10-22T09:28:54Z
2023-10-22T07:29:32Z,42.805,6.029,13.3035,4.60108,2470.787,2023-10-22T09:31:57Z
2023-10-22T07:32:35Z,42.805,6.029,13.3039,4.60107,2470.777,2023-10-22T09:35:01Z
2023-10-22T07:35:39Z,42.805,6.029,13.3036,4.60108,2470.787,2023-10-22T09:38:04Z
2023-10-22T07:38:42Z,42.805,6.029,13.3034,4.60107,2470.74,2023-10-22T09:41:07Z
2023-10-22T07:41:45Z,42.805,6.029,13.3037,4.60107,2470.8,2023-10-22T09:44:10Z
2023-10-22T07:44:48Z,42.805,6.029,13.3036,4.60110,2470.74,2023-10-22T09:47:13Z
2023-10-22T07:47:51Z,42.805,6.029,13.3037,4.60111,2470.787,2023-10-22T09:50:16Z
2023-10-22T07:50:54Z,42.805,6.029,13.3037,4.60111,2470.787,2023-10-22T09:53:19Z
2023-10-22T07:53:57Z,42.805,6.029,13.3037,4.60114,2470.8,2023-10-22T09:56:22Z
2023-10-22T07:57:00Z,42.805,6.029,13.3036,4.60131,2470.824,2023-10-22T09:59:25Z
2023-10-22T08:00:03Z,42.805,6.029,13.3036,4.60111,2470.8,2023-10-22T10:02:28Z
2023-10-22T08:03:06Z,42.805,6.029,13.3037,4.60113,2470.787,2023-10-22T10:05:31Z
2023-10-22T08:06:09Z,42.805,6.029,13.3033,4.60115,2470.777,2023-10-22T10:08:35Z
2023-10-22T08:09:12Z,42.805,6.029,13.3036,4.60115,2470.8,2023-10-22T10:11:38Z
2023-10-22T08:12:16Z,42.805,6.029,13.3038,4.60110,2470.8,2023-10-22T10:14:41Z
2023-10-22T08:15:19Z,42.805,6.029,13.3036,4.60111,2470.8,2023-10-22T10:17:44Z
2023-10-22T08:18:22Z,42.805,6.029,13.3038,4.60115,2470.847,2023-10-22T10:20:47Z
2023-10-22T08:21:25Z,42.805,6.029,13.3036,4.60117,2470.763,2023-10-22T10:23:50Z
2023-10-22T08:24:28Z,42.805,6.029,13.3037,4.60111,2470.81,2023-10-22T10:26:53Z
2023-10-22T08:27:31Z,42.805,6.029,13.3037,4.60110,2470.8,2023-10-22T10:29:56Z
2023-10-22T08:30:33Z,42.805,6.029,13.3038,4.60114,2470.8,2023-10-22T10:32:58Z
2023-10-22T08:33:36Z,42.805,6.029,13.3037,4.60117,2470.847,2023-10-22T10:36:01Z
2023-10-22T08:36:39Z,42.805,6.029,13.3036,4.60112,2470.833,2023-10-22T10:39:04Z
2023-10-22T08:39:42Z,42.805,6.029,13.3034,4.60110,2470.81,2023-10-22T10:42:07Z
2023-10-22T08:42:45Z,42.805,6.029,13.3036,4.60114,2470.81,2023-10-22T10:45:10Z
2023-10-22T08:45:48Z,42.805,6.029,13.3034,4.60114,2470.81,2023-10-22T10:48:14Z
2023-10-22T08:48:51Z,42.805,6.029,13.3034,4.60113,2470.824,2023-10-22T10:51:17Z
2023-10-22T08:51:55Z,42.805,6.029,13.3035,4.60108,2470.81,2023-10-22T10:54:20Z
2023-10-22T08:54:58Z,42.805,6.029,13.3033,4.60113,2470.824,2023-10-22T10:57:23Z
2023-10-22T08:58:01Z,42.805,6.029,13.3038,4.60117,2470.833,2023-10-22T11:00:26Z
2023-10-22T09:01:04Z,42.805,6.029,13.3036,4.60107,2470.824,2023-10-22T11:03:29Z
2023-10-22T09:04:07Z,42.805,6.029,13.3034,4.60114,2470.847,2023-10-22T11:06:32Z
2023-10-22T09:07:10Z,42.805,6.029,13.3034,4.60115,2470.847,2023-10-22T11:09:35Z
2023-10-22T09:10:13Z,42.805,6.029,13.3034,4.60107,2470.81,2023-10-22T11:12:38Z
2023-10-22T09:13:16Z,42.805,6.029,13.3035,4.60113,2470.833,2023-10-22T11:15:41Z
2023-10-22T09:16:19Z,42.805,6.029,13.3033,4.60112,2470.857,2023-10-22T11:18:44Z
2023-10-22T09:19:22Z,42.805,6.029,13.3037,4.60107,2470.833,2023-10-22T11:21:47Z
2023-10-22T09:22:25Z,42.805,6.029,13.3039,4.60112,2470.824,2023-10-22T11:24:51Z
2023-10-22T09:25:29Z,42.805,6.029,13.3036,4.60113,2470.833,2023-10-22T11:27:54Z
2023-10-22T09:28:32Z,42.805,6.029,13.3038,4.60111,2470.871,2023-10-22T11:30:57Z
2023-10-22T09:31:35Z,42.805,6.029,13.3039,4.60110,2470.81,2023-10-22T11:34:00Z
2023-10-22T09:34:38Z,42.805,6.029,13.3039,4.60115,2470.857,2023-10-22T11:37:03Z
2023-10-22T09:37:41Z,42.805,6.029,13.3038,4.60124,2470.871,2023-10-22T11:40:06Z
2023-10-22T09:40:44Z,42.805,6.029,13.3038,4.60116,2470.833,2023-10-22T11:43:09Z
2023-10-22T09:43:47Z,42.805,6.029,13.3034,4.60123,2470.847,2023-10-22T11:46:12Z
2023-10-22T09:46:50Z,42.805,6.029,13.3035,4.60123,2470.871,2023-10-22T11:49:15Z
2023-10-22T09:49:53Z,42.805,6.029,13.3039,4.60120,2470.857,2023-10-22T11:52:18Z
2023-10-22T09:52:56Z,42.805,6.029,13.3036,4.60108,2470.857,2023-10-22T11:55:21Z
2023-10-22T09:55:59Z,42.805,6.029,13.3038,4.60109,2470.871,2023-10-22T11:58:25Z
2023-10-22T09:59:02Z,42.805,6.029,13.3034,4.60114,2470.833,2023-10-22T12:01:28Z
2023-10-22T10:02:06Z,42.805,6.029,13.3037,4.60113,2470.871,2023-10-22T12:04:31Z
2023-10-22T10:05:09Z,42.805,6.029,13.3034,4.60112,2470.88,2023-10-22T12:07:34Z
2023-10-22T10:08:12Z,42.805,6.029,13.3037,4.60110,2470.857,2023-10-22T12:10:37Z
2023-10-22T10:11:15Z,42.805,6.029,13.3036,4.60114,2470.847,2023-10-22T12:13:40Z
2023-10-22T10:14:18Z,42.805,6.029,13.3035,4.60110,2470.894,2023-10-22T12:16:43Z
2023-10-22T10:17:21Z,42.805,6.029,13.3036,4.60108,2470.871,2023-10-22T12:19:46Z
2023-10-22T10:20:24Z,42.805,6.029,13.3036,4.60110,2470.833,2023-10-22T12:22:49Z
2023-10-22T10:23:27Z,42.805,6.029,13.3034,4.60110,2470.88,2023-10-22T12:25:52Z
2023-10-22T10:26:30Z,42.805,6.029,13.3036,4.60107,2470.88,2023-10-22T12:28:55Z
2023-10-22T10:29:33Z,42.805,6.029,13.3034,4.60105,2470.894,2023-10-22T12:31:59Z
2023-10-22T10:32:36Z,42.805,6.029,13.3036,4.60110,2470.857,2023-10-22T12:35:02Z
2023-10-22T10:35:40Z,42.805,6.029,13.3036,4.60122,2470.904,2023-10-22T12:38:05Z
2023-10-22T10:38:43Z,42.805,6.029,13.3033,4.60108,2470.871,2023-10-22T12:41:08Z
2023-10-22T10:41:46Z,42.805,6.029,13.3035,4.60112,2470.904,2023-10-22T12:44:11Z
2023-10-22T10:44:49Z,42.805,6.029,13.3032,4.60106,2470.857,2023-10-22T12:47:14Z
2023-10-22T10:47:52Z,42.805,6.029,13.3032,4.60117,2470.894,2023-10-22T12:50:17Z
2023-10-22T10:50:55Z,42.805,6.029,13.3036,4.60114,2470.904,2023-10-22T12:53:20Z
2023-10-22T10:53:58Z,42.805,6.029,13.3032,4.60108,2470.88,2023-10-22T12:56:23Z
2023-10-22T10:57:01Z,42.805,6.029,13.3033,4.60111,2470.904,2023-10-22T12:59:26Z
2023-10-22T11:00:04Z,42.805,6.029,13.3033,4.60107,2470.917,2023-10-22T13:02:29Z
2023-10-22T11:03:07Z,42.805,6.029,13.3035,4.60106,2470.904,2023-10-22T13:05:32Z
2023-10-22T11:06:10Z,42.805,6.029,13.3033,4.60114,2470.88,2023-10-22T13:08:36Z
2023-10-22T11:09:13Z,42.805,6.029,13.3034,4.60105,2470.88,2023-10-22T13:11:39Z
2023-10-22T11:12:17Z,42.805,6.029,13.3033,4.60107,2470.904,2023-10-22T13:14:42Z
2023-10-22T11:15:20Z,42.805,6.029,13.3032,4.60105,2470.88,2023-10-22T13:17:45Z
2023-10-22T11:18:23Z,42.805,6.029,13.3034,4.60114,2470.904,2023-10-22T13:20:48Z
2023-10-22T11:21:26Z,42.805,6.029,13.3031,4.60110,2470.917,2023-10-22T13:23:51Z
2023-10-22T11:24:29Z,42.805,6.029,13.3034,4.60114,2470.894,2023-10-22T13:26:54Z
2023-10-22T11:27:32Z,42.805,6.029,13.3052,4.60140,2470.904,2023-10-22T13:29:57Z
2023-10-22T11:30:35Z,42.805,6.029,13.3069,4.60161,2470.904,2023-10-22T13:33:00Z
2023-10-22T11:33:38Z,42.805,6.029,13.3063,4.60196,2470.894,2023-10-22T13:36:03Z
2023-10-22T11:36:41Z,42.805,6.029,13.3061,4.60222,2470.88,2023-10-22T13:39:06Z
2023-10-22T11:39:44Z,42.805,6.029,13.3061,4.60202,2470.894,2023-10-22T13:42:09Z
2023-10-22T11:42:47Z,42.805,6.029,13.3062,4.60193,2470.917,2023-10-22T13:45:13Z
2023-10-22T11:45:51Z,42.805,6.029,13.3069,4.60185,2470.927,2023-10-22T13:48:16Z
2023-10-22T11:48:54Z,42.805,6.029,13.3080,4.60148,2470.917,2023-10-22T13:51:19Z
2023-10-22T11:51:57Z,42.805,6.029,13.3089,4.60144,2470.94,2023-10-22T13:54:22Z
2023-10-22T11:55:00Z,42.805,6.029,13.3089,4.60145,2470.88,2023-10-22T13:57:25Z
2023-10-22T11:58:03Z,42.805,6.029,13.3087,4.60173,2470.917,2023-10-22T14:00:28Z
2023-10-22T12:01:06Z,42.805,6.029,13.3082,4.60155,2470.927,2023-10-22T14:03:31Z
2023-10-22T12:04:09Z,42.805,6.029,13.3091,4.60180,2470.917,2023-10-22T14:06:34Z
2023-10-22T12:07:12Z,42.805,6.029,13.3106,4.60144,2470.904,2023-10-22T14:09:37Z
2023-10-22T12:10:15Z,42.805,6.029,13.3106,4.60160,2470.927,2023-10-22T14:12:40Z
2023-10-22T12:13:18Z,42.805,6.029,13.3093,4.60171,2470.904,2023-10-22T14:15:43Z
2023-10-22T12:16:21Z,42.805,6.029,13.3097,4.60157,2470.894,2023-10-22T14:18:47Z
2023-10-22T12:19:24Z,42.805,6.029,13.3085,4.60185,2470.917,2023-10-22T14:21:50Z
2023-10-22T12:22:28Z,42.805,6.029,13.3102,4.60150,2470.927,2023-10-22T14:24:53Z
2023-10-22T12:25:31Z,42.805,6.029,13.3140,4.60166,2470.94,2023-10-22T14:27:56Z
2023-10-22T12:28:34Z,42.805,6.029,13.3084,4.60175,2470.94,2023-10-22T14:30:59Z
2023-10-22T12:31:37Z,42.805,6.029,13.3085,4.60189,2470.94,2023-10-22T14:34:02Z
2023-10-22T12:34:40Z,42.805,6.029,13.3094,4.60130,2470.904,2023-10-22T14:37:05Z
2023-10-22T12:37:43Z,42.805,6.029,13.3087,4.60129,2470.913,2023-10-22T14:40:08Z
2023-10-22T12:40:46Z,42.805,6.029,13.3087,4.60128,2470.927,2023-10-22T14:43:11Z
2023-10-22T12:43:49Z,42.805,6.029,13.3075,4.60149,2470.88,2023-10-22T14:46:14Z
2023-10-22T12:46:52Z,42.805,6.029,13.3065,4.60194,2470.88,2023-10-22T14:49:17Z
2023-10-22T12:49:55Z,42.805,6.029,13.3070,4.60157,2470.88,2023-10-22T14:52:20Z
2023-10-22T12:52:58Z,42.805,6.029,13.3079,4.60167,2470.927,2023-10-22T14:55:24Z
2023-10-22T12:56:02Z,42.805,6.029,13.3082,4.60216,2470.94,2023-10-22T14:58:27Z
2023-10-22T12:59:05Z,42.805,6.029,13.3077,4.60172,2470.904,2023-10-22T15:01:30Z
2023-10-22T13:02:08Z,42.805,6.029,13.3076,4.60172,2470.904,2023-10-22T15:04:33Z
2023-10-22T13:05:11Z,42.805,6.029,13.3067,4.60152,2470.904,2023-10-22T15:07:36Z
2023-10-22T13:08:14Z,42.805,6.029,13.3078,4.60141,2470.904,2023-10-22T15:10:39Z
2023-10-22T13:11:17Z,42.805,6.029,13.3098,4.60147,2470.917,2023-10-22T15:13:42Z
2023-10-22T13:14:20Z,42.805,6.029,13.3089,4.60140,2470.917,2023-10-22T15:16:45Z
2023-10-22T13:17:23Z,42.805,6.029,13.3093,4.60167,2470.904,2023-10-22T15:19:48Z
2023-10-22T13:20:26Z,42.805,6.029,13.3073,4.60152,2470.917,2023-10-22T15:22:51Z
2023-10-22T13:23:29Z,42.805,6.029,13.3079,4.60184,2470.917,2023-10-22T15:25:54Z
2023-10-22T13:26:32Z,42.805,6.029,13.3083,4.60180,2470.917,2023-10-22T15:28:58Z
2023-10-22T13:29:35Z,42.805,6.029,13.3089,4.60155,2470.917,2023-10-22T15:32:01Z
2023-10-22T13:32:39Z,42.805,6.029,13.3106,4.60184,2470.904,2023-10-22T15:35:04Z
2023-10-22T13:35:42Z,42.805,6.029,13.3092,4.60134,2470.904,2023-10-22T15:38:07Z
2023-10-22T13:38:45Z,42.805,6.029,13.3089,4.60127,2470.894,2023-10-22T15:41:10Z
2023-10-22T13:41:48Z,42.805,6.029,13.3076,4.60181,2470.94,2023-10-22T15:44:13Z
2023-10-22T13:44:51Z,42.805,6.029,13.3075,4.60136,2470.904,2023-10-22T15:47:16Z
2023-10-22T13:47:54Z,42.805,6.029,13.3085,4.60139,2470.894,2023-10-22T15:50:19Z
2023-10-22T13:50:57Z,42.805,6.029,13.3072,4.60142,2470.904,2023-10-22T15:53:22Z
2023-10-22T13:54:00Z,42.805,6.029,13.3070,4.60138,2470.904,2023-10-22T15:56:25Z
2023-10-22T13:57:03Z,42.805,6.029,13.3080,4.60146,2470.904,2023-10-22T15:59:28Z
2023-10-22T14:00:06Z,42.805,6.029,13.3064,4.60144,2470.927,2023-10-22T16:02:31Z
2023-10-22T14:03:09Z,42.805,6.029,13.3070,4.60178,2470.894,2023-10-22T16:05:35Z
2023-10-22T14:06:13Z,42.805,6.029,13.3054,4.60183,2470.88,2023-10-22T16:08:38Z
2023-10-22T14:09:16Z,42.805,6.029,13.3076,4.60219,2470.927,2023-10-22T16:11:41Z
2023-10-22T14:12:19Z,42.805,6.029,13.3063,4.60198,2470.904,2023-10-22T16:14:44Z
2023-10-22T14:15:22Z,42.805,6.029,13.3069,4.60189,2470.904,2023-10-22T16:17:47Z
2023-10-22T14:18:25Z,42.805,6.029,13.3063,4.60208,2470.904,2023-10-22T16:20:50Z
2023-10-22T14:21:28Z,42.805,6.029,13.3062,4.60202,2470.904,2023-10-22T16:23:53Z
2023-10-22T14:24:31Z,42.805,6.029,13.3065,4.60178,2470.904,2023-10-22T16:26:56Z
2023-10-22T14:27:34Z,42.805,6.029,13.3057,4.60210,2470.904,2023-10-22T16:29:59Z
2023-10-22T14:30:36Z,42.805,6.029,13.3071,4.60186,2470.904,2023-10-22T16:33:01Z
2023-10-22T14:33:39Z,42.805,6.029,13.3061,4.60176,2470.904,2023-10-22T16:36:04Z
2023-10-22T14:36:42Z,42.805,6.029,13.3057,4.60209,2470.94,2023-10-22T16:39:07Z
2023-10-22T14:39:45Z,42.805,6.029,13.3054,4.60195,2470.917,2023-10-22T16:42:10Z
2023-10-22T14:42:48Z,42.805,6.029,13.3058,4.60203,2470.88,2023-10-22T16:45:13Z
2023-10-22T14:45:51Z,42.805,6.029,13.3058,4.60194,2470.94,2023-10-22T16:48:16Z
2023-10-22T14:48:54Z,42.805,6.029,13.3048,4.60180,2470.94,2023-10-22T16:51:19Z
2023-10-22T14:51:57Z,42.805,6.029,13.3071,4.60180,2470.94,2023-10-22T16:54:23Z
2023-10-22T14:55:00Z,42.805,6.029,13.3061,4.60170,2470.88,2023-10-22T16:57:26Z
2023-10-22T14:58:04Z,42.805,6.029,13.3078,4.60150,2470.927,2023-10-22T17:00:29Z
2023-10-22T15:01:07Z,42.805,6.029,13.3061,4.60204,2470.904,2023-10-22T17:03:32Z